Satellite: CO-57
Catalog number: 27848
Epoch time:      09141.55453739
Element set:     530
Inclination:      098.7150 deg
RA of node:       150.1586 deg
Eccentricity:    0.0008990
Arg of perigee:   221.9260 deg
Mean anomaly:     138.1242 deg
Mean motion:   14.20439940 rev/day
Decay rate:        2.8e-07 rev/day^2
Epoch rev:           30544
Checksum:              303

Satellite: AO-51
Catalog number: 28375
Epoch time:      09141.57180041
Element set:     393
Inclination:      098.0531 deg
RA of node:       152.7281 deg
Eccentricity:    0.0082897
Arg of perigee:   205.6555 deg
Mean anomaly:     154.0512 deg
Mean motion:   14.40642135 rev/day
Decay rate:        1.1e-07 rev/day^2
Epoch rev:           25712
Checksum:              279

Satellite: CO-56
Catalog number: 28941
Epoch time:      09141.54228669
Element set:      93
Inclination:      098.1367 deg
RA of node:       311.0467 deg
Eccentricity:    0.0093261
Arg of perigee:   232.4060 deg
Mean anomaly:     126.8708 deg
Mean motion:   15.81242167 rev/day
Decay rate:     4.8837e-04 rev/day^2
Epoch rev:           18303
Checksum:              320

Satellite: GENESAT1
Catalog number: 29655
Epoch time:      09140.94327536
Element set:    0724
Inclination:      040.0254 deg
RA of node:       353.9597 deg
Eccentricity:    0.0003007
Arg of perigee:   288.0314 deg
Mean anomaly:     072.0175 deg
Mean motion:   15.65075849 rev/day
Decay rate:     1.2083e-04 rev/day^2
Epoch rev:           13820
Checksum:              293

Satellite: CP3
Catalog number: 31129
Epoch time:      09141.64390494
Element set:     941
Inclination:      097.9937 deg
RA of node:       195.9905 deg
Eccentricity:    0.0102664
Arg of perigee:   008.2224 deg
Mean anomaly:     352.0621 deg
Mean motion:   14.52131207 rev/day
Decay rate:        7.8e-07 rev/day^2
Epoch rev:           11103
Checksum:              282

Satellite: CO-65
Catalog number: 32785
Epoch time:      09140.29820262
Element set:    0370
Inclination:      097.9446 deg
RA of node:       204.4922 deg
Eccentricity:    0.0016058
Arg of perigee:   119.9168 deg
Mean anomaly:     240.3638 deg
Mean motion:   14.81482788 rev/day
Decay rate:       2.75e-06 rev/day^2
Epoch rev:           05731
Checksum:              325

Satellite: KKS-1
Catalog number: 33493
Epoch time:      09141.74385040
Element set:     400
Inclination:      098.0549 deg
RA of node:       253.8413 deg
Eccentricity:    0.0019657
Arg of perigee:   330.9616 deg
Mean anomaly:     029.0507 deg
Mean motion:   14.80669085 rev/day
Decay rate:       3.05e-06 rev/day^2
Epoch rev:            1755
Checksum:              296

Satellite: SOHLA-1
Catalog number: 33496
Epoch time:      09141.69372747
Element set:     362
Inclination:      098.0361 deg
RA of node:       251.4181 deg
Eccentricity:    0.0007164
Arg of perigee:   017.7776 deg
Mean anomaly:     342.3688 deg
Mean motion:   14.69434132 rev/day
Decay rate:        4.5e-07 rev/day^2
Epoch rev:            1738
Checksum:              309

/EX
SB KEPS @ AMSAT  $ORB09141.W
Orbital Elements  09141.WEATHER

HR AMSAT ORBITAL ELEMENTS FOR WEATHER SATELLITES
FROM WA5QGD FORT WORTH,TX May 21, 2009
Send Subscribe/unsubscribe to KEPS at 
http://www.amsat.org/mailman/listinfo/keps
BID: ORB09141.W
TO ALL RADIO AMATEURS BT

Satellite: NOAA-10
Catalog number: 16969
Epoch time:      09140.60867907
Element set:    0620
Inclination:      098.6925 deg
RA of node:       167.4044 deg
Eccentricity:    0.0011471
Arg of perigee:   279.1731 deg
Mean anomaly:     080.8146 deg
Mean motion:   14.27386458 rev/day
Decay rate:       -6.0e-08 rev/day^2
Epoch rev:           17957
Checksum:              329

Satellite: NOAA-11
Catalog number: 19531
Epoch time:      09140.76949693
Element set:    0629
Inclination:      098.7833 deg
RA of node:       231.1450 deg
Eccentricity:    0.0011455
Arg of perigee:   182.8679 deg
Mean anomaly:     177.2417 deg
Mean motion:   14.14895255 rev/day
Decay rate:      -1.94e-06 rev/day^2
Epoch rev:           06564
Checksum:              335

Satellite: NOAA-12
Catalog number: 21263
Epoch time:      09140.94513760
Element set:    0145
Inclination:      098.7709 deg
RA of node:       148.9935 deg
Eccentricity:    0.0011534
Arg of perigee:   222.3613 deg
Mean anomaly:     137.6677 deg
Mean motion:   14.25578845 rev/day
Decay rate:        1.5e-07 rev/day^2
Epoch rev:           93651
Checksum:              315

Satellite: MET-3/5
Catalog number: 21655
Epoch time:      09140.95227752
Element set:    0620
Inclination:      082.5513 deg
RA of node:       225.7286 deg
Eccentricity:    0.0012226
Arg of perigee:   248.7452 deg
Mean anomaly:     111.2365 deg
Mean motion:   13.17019248 rev/day
Decay rate:        5.1e-07 rev/day^2
Epoch rev:           85404
Checksum:              282

Satellite: MET-2/21
Catalog number: 22782
Epoch time:      09140.77220390
Element set:    0463
Inclination:      082.5485 deg
RA of node:       203.7515 deg
Eccentricity:    0.0023994
Arg of perigee:   065.3541 deg
Mean anomaly:     295.0113 deg
Mean motion:   13.83635404 rev/day
Decay rate:       -9.4e-07 rev/day^2
Epoch rev:           79381
Checksum:              300

